Location: Mentone
(34.5413°N, 85.5351°W)
Time: 13:48:37
(UTC-05:00)

ATLAS 5 CENTAUR R/B - Visible Passes

Search period start: 28 June 2016 00:00
Search period end: 08 July 2016 00:00
Orbit: 667 x 994 km, 63.4° (Epoch: 27 June)

Date Brightness Start Highest point End Pass type
(mag) Time Alt. Az. Time Alt. Az. Time Alt. Az.
28 Jun 5.4 02:21:58 10° NNE 02:24:34 13° NE 02:27:13 10° ENE visible
28 Jun 2.8 04:04:14 10° NNW 04:10:18 68° ENE 04:16:43 10° SE visible
28 Jun 5.2 20:38:56 10° WNW 20:41:15 13° NW 20:43:41 10° NNW visible
29 Jun 5.3 02:03:21 10° NNE 02:05:37 12° NE 02:07:57 10° ENE visible
29 Jun 2.9 03:45:22 10° NNW 03:51:24 64° ENE 03:57:48 10° SE visible
30 Jun 5.3 01:44:47 10° NNE 01:46:41 11° NE 01:48:36 10° ENE visible
30 Jun 3.0 03:26:30 10° NNW 03:32:31 60° ENE 03:38:53 10° SE visible
01 Jul 5.3 01:26:20 10° NNE 01:27:44 11° NE 01:29:09 10° NE visible
01 Jul 3.0 03:07:39 10° NNW 03:13:38 56° ENE 03:19:57 10° SE visible
01 Jul 3.5 04:53:21 10° WNW 04:58:03 23° WSW 05:02:54 10° SSW visible
02 Jul 5.3 01:08:13 10° NNE 01:08:46 10° NE 01:09:19 10° NE visible
02 Jul 3.1 02:48:48 10° NNW 02:54:44 53° NE 03:01:01 10° SE visible
02 Jul 3.4 04:34:20 10° WNW 04:39:11 24° WSW 04:44:13 10° SSW visible
03 Jul 3.2 02:29:57 10° NNW 02:35:50 50° NE 02:42:04 10° SE visible
03 Jul 3.4 04:15:20 10° WNW 04:20:21 26° WSW 04:25:31 10° SSW visible
04 Jul 3.3 02:11:06 10° NNW 02:16:57 47° NE 02:22:03 15° SE visible
04 Jul 3.3 03:56:21 10° NW 04:01:29 28° WSW 04:03:24 24° SW visible
05 Jul 3.3 01:52:16 10° NNW 01:58:03 45° NE 02:01:19 25° ESE visible
05 Jul 3.2 03:37:23 10° NW 03:42:38 29° WSW 03:42:43 29° WSW visible
06 Jul 3.4 01:33:25 10° NNW 01:39:09 42° NE 01:41:18 32° E visible
06 Jul 3.3 03:18:25 10° NW 03:22:45 30° W 03:22:45 30° W visible
07 Jul 3.5 01:14:35 10° NNW 01:20:14 40° NE 01:21:42 35° E visible
07 Jul 3.5 02:59:27 10° NW 03:03:10 29° W 03:03:10 29° W visible
